SCP
0 0 0 0 0 0 0 0 0 0 0 0 0 0 0 0 0 0 0 0 0 0
0 0 0 0 0 0 0 0 0 0 0 0 0 0 0 0 0 0 0 0 0 0
0 0 0 0 0 0 0 0 0 0 0 0 0 0 0 0 0 0 0 0 0 0
0 0 0 0 0 0 0 0 0 0 0 0 0 0 0 0 0 0 0 0 0 0
0 0 0 0 0 0 0 0 0 0 0 0 0 0 0 0 0 0 0 0 0 0
0 0 0 0 0 0 0 0 0 0 0 0 0 0 0 0 0 0 0 0 0 0
0 0 0 0 0 0 0 0 0 0 0 0 0 0 0 0 0 0 0 0 0 0
0 0 0 0 0 0 0 0 0 0 0 0 0 0 0 0 0 0 0 0 0 0
0 0 0 0 0 0 0 0 0 0 0 0 0 0 0 0 0 0 0 0 0 0
0 0 0 0 0 0 0 0 0 0 0 0 0 0 0 0 0 0 0 0 0 0
0 0 0 0 0 0 0 0 0 0 0 0 0 0 0 0 0 0 0 0 0 0
0 0 0 0 0 0 0 0 0 0 0 0 0 0 0 0 0 0 0 0 0 0
0 0 0 0 0 0 0 0 0 0 0 0 0 0 0 0 0 0 0 0 0 0
0 0 0 0 0 0 0 0 0 0 0 0 0 0 0 0 0 0 0 0 0 0
Wind_Speed_500mb
13 10 12 15 15 19 24 27 29 28 27 26 24 21 21 21 22 23 25 29 32 38
13 13 11 13 19 26 29 30 29 25 25 23 21 21 21 21 24 27 32 37 41 43
12 8 12 19 25 30 30 27 23 22 22 22 23 22 23 24 29 33 36 40 46 48
8 12 17 23 29 27 22 22 21 21 23 25 25 25 28 30 34 41 47 48 52 52
11 16 22 27 25 22 20 21 23 26 30 31 29 27 31 37 43 51 55 55 56 55
17 21 25 25 22 20 22 25 27 31 34 34 27 30 36 45 45 46 51 51 48 47
22 23 25 21 19 22 27 30 31 30 32 24 29 33 35 37 40 47 50 49 47 48
23 25 21 19 22 26 30 32 29 32 25 30 36 35 37 40 45 50 54 51 47 43
24 21 20 22 24 28 31 29 33 29 30 35 37 39 40 44 51 56 55 50 49 40
19 18 20 23 26 28 31 30 27 29 36 40 45 44 42 48 56 59 54 53 57 45
16 17 23 26 25 28 26 29 32 35 40 45 50 43 43 51 60 64 54 55 50 46
16 19 26 24 24 27 28 29 35 39 42 43 42 38 43 55 64 51 51 57 46 44
18 18 22 25 27 28 26 33 36 40 46 42 33 41 49 58 56 49 50 59 50 43
13 17 22 24 28 25 28 32 38 42 38 33 42 50 50 57 60 50 53 54 53 44
Wind_Direction_500mb
208 232 254 266 293 312 318 321 326 333 335 333 332 335 341 354 354 354 349 346 345 343
222 234 266 304 321 324 324 329 328 332 333 334 333 333 339 338 339 336 333 331 333 332
225 270 313 325 322 321 318 318 322 328 336 334 332 327 328 324 320 319 316 320 320 322
269 313 321 314 312 309 313 317 318 324 331 332 329 325 320 318 312 308 310 310 307 309
296 312 307 305 307 310 314 317 318 320 320 322 320 319 319 316 312 310 309 307 305 306
290 296 298 301 304 309 314 316 313 311 314 315 316 319 322 318 320 324 320 313 308 307
280 291 293 297 306 310 311 315 312 310 319 318 316 316 320 327 326 330 328 322 316 311
283 286 285 296 303 309 312 313 309 311 312 316 317 311 312 319 323 328 330 327 318 311
278 281 289 295 302 308 310 309 309 306 309 316 318 312 308 314 320 324 328 330 324 315
272 286 290 298 305 306 308 309 313 311 310 312 314 313 305 313 318 321 323 328 332 316
278 288 293 299 301 309 310 312 312 313 312 312 313 311 307 313 316 318 316 318 327 316
271 286 290 295 302 309 311 316 317 317 315 316 316 316 313 314 314 306 306 320 318 312
272 283 289 301 304 310 314 318 318 320 319 318 319 319 317 316 314 308 304 313 309 307
272 293 296 306 311 314 322 322 323 324 324 328 326 323 322 321 317 310 305 303 303 297
Wind_Speed_850mb
13 10 12 15 15 19 24 27 29 28 27 26 24 21 21 21 22 23 25 29 32 38
13 13 11 13 19 26 29 30 29 25 25 23 21 21 21 21 24 27 32 37 41 43
12 8 12 19 25 30 30 27 23 22 22 22 23 22 23 24 29 33 36 40 46 48
8 12 17 23 29 27 22 22 21 21 23 25 25 25 28 30 34 41 47 48 52 52
11 16 22 27 25 22 20 21 23 26 30 31 29 27 31 37 43 51 55 55 56 55
17 21 25 25 22 20 22 25 27 31 34 34 27 30 36 45 45 46 51 51 48 47
22 23 25 21 19 22 27 30 31 30 32 24 29 33 35 37 40 47 50 49 47 48
23 25 21 19 22 26 30 32 29 32 25 30 36 35 37 40 45 50 54 51 47 43
24 21 20 22 24 28 31 29 33 29 30 35 37 39 40 44 51 56 55 50 49 40
19 18 20 23 26 28 31 30 27 29 36 40 45 44 42 48 56 59 54 53 57 45
16 17 23 26 25 28 26 29 32 35 40 45 50 43 43 51 60 64 54 55 50 46
16 19 26 24 24 27 28 29 35 39 42 43 42 38 43 55 64 51 51 57 46 44
18 18 22 25 27 28 26 33 36 40 46 42 33 41 49 58 56 49 50 59 50 43
13 17 22 24 28 25 28 32 38 42 38 33 42 50 50 57 60 50 53 54 53 44
Wind_Direction_850mb
208 232 254 266 293 312 318 321 326 333 335 333 332 335 341 354 354 354 349 346 345 343
222 234 266 304 321 324 324 329 328 332 333 334 333 333 339 338 339 336 333 331 333 332
225 270 313 325 322 321 318 318 322 328 336 334 332 327 328 324 320 319 316 320 320 322
269 313 321 314 312 309 313 317 318 324 331 332 329 325 320 318 312 308 310 310 307 309
296 312 307 305 307 310 314 317 318 320 320 322 320 319 319 316 312 310 309 307 305 306
290 296 298 301 304 309 314 316 313 311 314 315 316 319 322 318 320 324 320 313 308 307
280 291 293 297 306 310 311 315 312 310 319 318 316 316 320 327 326 330 328 322 316 311
283 286 285 296 303 309 312 313 309 311 312 316 317 311 312 319 323 328 330 327 318 311
278 281 289 295 302 308 310 309 309 306 309 316 318 312 308 314 320 324 328 330 324 315
272 286 290 298 305 306 308 309 313 311 310 312 314 313 305 313 318 321 323 328 332 316
278 288 293 299 301 309 310 312 312 313 312 312 313 311 307 313 316 318 316 318 327 316
271 286 290 295 302 309 311 316 317 317 315 316 316 316 313 314 314 306 306 320 318 312
272 283 289 301 304 310 314 318 318 320 319 318 319 319 317 316 314 308 304 313 309 307
272 293 296 306 311 314 322 322 323 324 324 328 326 323 322 321 317 310 305 303 303 297